Starlink 31904

operational
NORAD ID: 59657 Int'l Des: 2024-084 Owner: SPXS Country: US Constellation: starlink
LEOCIRCULAR

About Starlink 31904

Description loading...

Live Position

Loading 3D Globe...

Upcoming Passes

Altitude History

Altitude vs Time

uPlot chart will show altitude changes over time

Two-Line Element Set

1 59657U 24084D 25305.01751503 .00000467 00000-0 26497-4 0 9996
2 59657 43.0035 48.5366 0001679 261.3428 98.7234 15.27574526 84694
Epoch: Nov 1, 2025 • Age: 21 hours

Current Status

Altitude 486.1 km
Velocity 7.63 km/s
Sub-Earth Point 38.07°N, 165.7°E
Launch Date May 6, 2024
Age 1.4 years
Type internet

Technical Details

Classification Payload
Mass 730.00 kg
Dry Mass 700.00 kg
Total Mass 730.00 kg
Length 0.30 m
Diameter 4.10 m
Span 29.00 m
Shape Box + pan
Manufacturer SPXS
Bus Type Starlink V2M
Phase Status In Orbit
Owner/State SPXS/US

Large Constellations

Loading constellations...